�N����,����,�~����,�C��,���x,�C��,����,���ϕ���,�ő�u�ԕ���,�ő厞����,���˗�,�I�_���x,�n�����x,�ő啗���N��,DTYPE
"19/11/26","00:10",0.0,11.5,76.3,1020.4,313.7,2.3,3.6,333.8,0.00,7.5,13.7,"00:06:06",1
"19/11/26","00:20",0.0,11.4,76.2,1020.4,332.4,2.0,3.5,327.0,0.00,7.4,13.6,"00:12:42",1
"19/11/26","00:30",0.0,11.4,76.4,1020.6,307.8,2.0,2.9,325.3,0.00,7.4,13.6,"00:29:18",1
"19/11/26","00:40",0.0,11.4,76.6,1020.6,307.5,2.1,3.9,319.8,0.00,7.5,13.7,"00:33:20",1
"19/11/26","00:50",0.0,11.5,76.8,1020.8,325.1,3.1,6.2,322.9,0.00,7.6,13.5,"00:44:40",1
"19/11/26","01:00",0.0,11.5,77.0,1020.8,331.7,3.0,4.2,334.1,0.00,7.7,13.5,"00:50:26",1
"19/11/26","01:10",0.0,11.4,77.5,1020.6,325.9,2.7,5.1,318.7,0.00,7.7,13.5,"01:03:28",1
"19/11/26","01:20",0.0,11.2,78.0,1020.6,327.2,2.3,3.9,331.4,0.00,7.6,13.6,"01:18:34",1
"19/11/26","01:30",0.0,11.1,78.4,1020.8,295.9,1.8,2.8,322.4,0.00,7.5,13.4,"01:21:02",1
"19/11/26","01:40",0.0,11.1,78.7,1020.8,324.1,1.7,2.7,331.4,0.00,7.6,13.6,"01:30:18",1
"19/11/26","01:50",0.0,11.0,78.8,1021.1,334.6,2.0,3.1,344.7,0.00,7.5,13.4,"01:41:06",1
"19/11/26","02:00",0.0,11.1,78.6,1021.5,325.1,1.8,2.6,323.8,0.00,7.6,13.6,"01:58:02",1
"19/11/26","02:10",0.0,11.0,78.6,1021.1,322.3,2.3,4.4,333.3,0.00,7.5,13.5,"02:07:58",1
"19/11/26","02:20",0.0,11.0,78.7,1021.1,324.6,2.3,4.0,327.2,0.00,7.5,13.5,"02:17:54",1
"19/11/26","02:30",0.0,11.1,78.7,1020.8,310.2,2.6,4.2,326.9,0.00,7.6,13.5,"02:27:52",1
"19/11/26","02:40",0.0,11.0,78.8,1021.3,318.6,2.3,4.0,303.0,0.00,7.5,13.6,"02:30:26",1
"19/11/26","02:50",0.0,11.0,78.8,1021.3,319.6,2.3,4.5,327.2,0.00,7.5,13.2,"02:40:16",1
"19/11/26","03:00",0.0,10.9,78.8,1020.8,296.1,1.2,2.4,321.4,0.00,7.4,13.4,"02:52:46",1
"19/11/26","03:10",0.0,10.8,78.9,1020.8,299.0,1.3,2.1,332.1,0.00,7.3,13.4,"03:01:20",1
"19/11/26","03:20",0.0,10.7,78.9,1020.6,302.5,2.0,3.2,326.7,0.00,7.2,13.2,"03:19:00",1
"19/11/26","03:30",0.0,10.7,78.7,1021.1,295.4,1.6,3.1,323.1,0.00,7.2,13.4,"03:20:10",1
"19/11/26","03:40",0.0,10.7,78.3,1020.8,309.8,2.0,3.3,327.9,0.00,7.1,13.3,"03:31:18",1
"19/11/26","03:50",0.0,10.7,78.1,1021.1,315.6,2.2,4.9,336.9,0.00,7.1,13.4,"03:47:06",1
"19/11/26","04:00",0.0,10.8,77.5,1020.8,314.4,2.6,4.8,334.1,0.00,7.1,13.2,"03:53:46",1
"19/11/26","04:10",0.0,10.9,76.7,1020.6,320.9,2.2,4.4,335.9,0.00,7.0,13.5,"04:01:14",1
"19/11/26","04:20",0.0,11.0,76.6,1021.1,295.2,1.3,2.5,319.1,0.00,7.1,13.3,"04:12:00",1
"19/11/26","04:30",0.0,10.8,76.7,1021.1,294.6,1.5,2.9,308.4,0.00,6.9,13.2,"04:28:58",1
"19/11/26","04:40",0.0,11.0,76.8,1021.1,310.8,2.1,3.3,328.5,0.00,7.1,13.3,"04:36:26",1
"19/11/26","04:50",0.0,11.0,76.9,1020.8,291.2,1.5,2.4,314.4,0.00,7.1,13.2,"04:47:14",1
"19/11/26","05:00",0.0,10.9,77.1,1021.3,302.2,1.5,1.9,313.1,0.00,7.1,13.2,"04:52:46",1
"19/11/26","05:10",0.0,11.0,77.3,1021.5,289.6,1.5,1.9,303.4,0.00,7.2,13.1,"05:05:12",1
"19/11/26","05:20",0.0,11.0,77.4,1021.1,284.9,1.6,2.4,314.8,0.00,7.2,13.1,"05:10:08",1
"19/11/26","05:30",0.0,11.0,77.5,1021.5,299.0,1.6,2.9,327.4,0.00,7.3,13.3,"05:25:08",1
"19/11/26","05:40",0.0,11.1,77.6,1021.5,317.1,1.6,2.5,319.0,0.00,7.4,13.2,"05:30:32",1
"19/11/26","05:50",0.0,10.9,78.0,1022.0,308.9,1.6,2.1,308.6,0.00,7.3,13.2,"05:48:36",1
"19/11/26","06:00",0.0,10.8,78.6,1022.0,308.6,1.7,2.8,324.5,0.00,7.3,13.0,"05:55:00",1
"19/11/26","06:10",0.0,10.9,78.8,1021.8,303.8,1.7,2.2,317.7,0.00,7.4,13.2,"06:06:50",1
"19/11/26","06:20",0.0,10.9,78.9,1021.8,319.6,1.3,2.1,300.0,0.00,7.4,13.3,"06:19:06",1
"19/11/26","06:30",0.0,10.9,78.9,1022.0,302.8,1.5,2.0,323.4,0.00,7.4,13.2,"06:22:54",1
"19/11/26","06:40",0.0,10.8,79.0,1022.0,310.5,1.6,2.0,315.8,0.00,7.3,13.2,"06:38:18",1
"19/11/26","06:50",0.0,10.7,79.5,1022.3,318.1,1.6,2.4,327.1,0.00,7.3,13.4,"06:47:50",1
"19/11/26","07:00",0.0,10.7,79.5,1022.5,304.3,1.8,3.1,327.6,0.00,7.3,13.2,"06:51:36",1
"19/11/26","07:10",0.0,10.7,79.1,1022.7,322.2,1.8,2.7,336.9,0.00,7.3,13.3,"07:03:34",1
"19/11/26","07:20",0.0,10.7,78.9,1022.7,312.6,2.0,2.4,332.8,0.00,7.2,13.3,"07:19:58",1
"19/11/26","07:30",0.0,10.7,78.6,1023.0,315.2,2.1,3.1,302.5,0.00,7.2,13.4,"07:20:42",1
"19/11/26","07:40",0.0,10.7,78.5,1023.0,314.5,1.7,2.5,322.3,0.00,7.2,13.2,"07:34:52",1
"19/11/26","07:50",0.0,10.7,78.7,1022.7,324.3,1.7,2.1,331.1,0.00,7.2,13.2,"07:48:36",1
"19/11/26","08:00",0.0,10.6,79.3,1023.0,318.5,2.1,2.6,332.7,0.00,7.2,13.2,"07:52:00",1
"19/11/26","08:10",0.0,10.7,79.8,1023.2,319.4,1.8,2.6,323.9,0.00,7.4,13.2,"08:04:24",1
"19/11/26","08:20",0.0,10.7,80.2,1022.7,304.1,1.6,2.2,332.2,0.00,7.5,13.2,"08:15:00",1
"19/11/26","08:30",0.0,10.9,80.6,1023.4,298.2,1.3,2.1,320.3,0.01,7.7,13.3,"08:20:50",1
"19/11/26","08:40",0.0,11.2,80.6,1023.0,286.6,1.3,2.2,270.4,0.06,8.0,13.2,"08:31:22",1
"19/11/26","08:50",0.0,11.6,79.9,1023.2,308.0,1.3,2.6,340.8,0.08,8.3,13.3,"08:42:50",1
"19/11/26","09:00",0.0,11.8,78.9,1023.4,297.8,1.2,2.2,327.6,0.04,8.3,13.3,"08:54:40",1
"19/11/26","09:10",0.0,11.9,78.2,1023.2,311.2,1.3,2.4,338.6,0.05,8.3,13.4,"09:03:50",1
"19/11/26","09:20",0.0,12.2,77.4,1023.4,334.7,0.8,1.8,343.8,0.11,8.4,13.5,"09:17:04",1
"19/11/26","09:30",0.0,12.7,75.4,1023.7,323.0,1.5,2.4,326.5,0.13,8.5,13.6,"09:21:52",1
"19/11/26","09:40",0.0,12.5,73.2,1023.2,335.9,1.3,3.1,315.7,0.09,7.9,13.5,"09:38:56",1
"19/11/26","09:50",0.0,12.4,71.7,1023.7,347.7,1.2,2.6,335.5,0.06,7.5,13.5,"09:49:04",1
"19/11/26","10:00",0.0,12.4,71.2,1023.4,349.6,1.2,3.5,22.0,0.08,7.4,13.7,"09:58:50",1
"19/11/26","10:10",0.0,13.5,71.1,1023.0,326.3,1.0,2.1,343.2,0.27,8.4,13.8,"10:00:32",1
"19/11/26","10:20",0.0,14.0,67.6,1023.4,9.7,1.2,3.2,341.3,0.30,8.1,13.8,"10:12:48",1
"19/11/26","10:30",0.0,13.9,65.6,1023.2,345.6,1.8,3.6,330.3,0.24,7.6,14.0,"10:25:20",1
"19/11/26","10:40",0.0,13.6,65.7,1023.4,333.8,1.5,2.6,322.4,0.14,7.3,13.9,"10:33:52",1
"19/11/26","10:50",0.0,13.4,65.8,1023.0,354.2,1.6,3.3,347.7,0.14,7.2,14.0,"10:43:52",1
"19/11/26","11:00",0.0,13.5,66.3,1023.2,342.0,1.5,3.7,320.8,0.14,7.4,14.1,"10:50:48",1
"19/11/26","11:10",0.0,13.5,65.6,1023.0,332.8,2.1,3.6,341.9,0.15,7.2,14.2,"11:07:36",1
"19/11/26","11:20",0.0,13.7,65.3,1022.7,347.5,2.1,4.4,344.7,0.19,7.4,14.3,"11:19:20",1
"19/11/26","11:30",0.0,13.6,65.6,1022.7,334.3,2.3,3.9,352.9,0.18,7.3,14.3,"11:25:52",1
"19/11/26","11:40",0.0,13.8,65.8,1022.5,335.3,2.6,5.1,332.6,0.19,7.6,14.2,"11:35:20",1
"19/11/26","11:50",0.0,13.8,65.2,1022.5,339.5,2.5,4.4,346.7,0.21,7.4,14.4,"11:40:08",1
"19/11/26","12:00",0.0,14.0,64.0,1022.3,345.8,2.1,4.8,348.2,0.27,7.3,14.6,"11:55:12",1
"19/11/26","12:10",0.0,14.6,62.9,1022.0,344.8,1.7,4.0,338.7,0.36,7.7,14.6,"12:01:20",1
"19/11/26","12:20",0.0,15.2,60.6,1022.0,3.7,1.7,4.1,332.3,0.51,7.7,14.7,"12:18:32",1
"19/11/26","12:30",0.0,15.2,59.5,1021.5,6.1,1.3,4.0,38.0,0.38,7.4,15.0,"12:27:20",1
"19/11/26","12:40",0.0,14.6,59.2,1021.8,343.4,2.1,5.0,324.0,0.25,6.8,15.1,"12:38:32",1
"19/11/26","12:50",0.0,14.6,60.7,1021.5,339.7,2.1,5.0,338.8,0.27,7.1,15.0,"12:41:04",1
"19/11/26","13:00",0.0,14.7,60.5,1021.5,337.2,2.3,4.2,343.8,0.27,7.2,15.4,"12:57:04",1
"19/11/26","13:10",0.0,14.3,61.5,1021.1,333.0,2.3,4.7,352.4,0.19,7.0,15.4,"13:02:08",1
"19/11/26","13:20",0.0,14.3,61.8,1021.3,339.0,2.2,5.1,340.0,0.19,7.1,15.2,"13:19:36",1
"19/11/26","13:30",0.0,14.4,61.5,1021.3,338.2,2.1,4.8,321.2,0.21,7.1,15.4,"13:20:08",1
"19/11/26","13:40",0.0,14.6,60.1,1021.3,340.5,2.0,3.9,335.8,0.22,7.0,15.6,"13:30:24",1
"19/11/26","13:50",0.0,14.3,60.3,1020.8,337.9,2.7,5.7,345.5,0.19,6.8,15.3,"13:40:08",1
"19/11/26","14:00",0.0,13.8,61.2,1021.1,334.2,2.8,4.9,322.6,0.13,6.5,15.4,"13:54:08",1
"19/11/26","14:10",0.0,13.9,62.1,1021.1,338.9,2.6,5.9,328.8,0.14,6.8,15.4,"14:01:58",1
"19/11/26","14:20",0.0,14.4,62.5,1020.8,336.4,2.6,4.4,340.6,0.25,7.4,15.3,"14:19:44",1
"19/11/26","14:30",0.0,14.8,60.8,1020.8,332.7,2.7,5.2,324.0,0.29,7.4,15.4,"14:25:36",1
"19/11/26","14:40",0.0,14.6,60.4,1020.8,339.3,3.1,5.2,324.1,0.24,7.1,15.3,"14:30:24",1
"19/11/26","14:50",0.0,14.7,60.4,1020.6,337.3,3.1,5.0,333.1,0.26,7.2,15.2,"14:49:44",1
"19/11/26","15:00",0.0,14.0,60.5,1021.1,337.4,3.2,6.0,334.4,0.11,6.5,15.4,"14:53:36",1
"19/11/26","15:10",0.0,13.9,62.4,1020.6,333.5,2.7,5.4,350.4,0.10,6.9,15.3,"15:00:48",1
"19/11/26","15:20",0.0,13.7,63.0,1020.8,340.1,3.1,6.5,336.1,0.08,6.8,15.3,"15:12:08",1
"19/11/26","15:30",0.0,13.7,63.6,1020.6,339.2,2.7,4.9,349.3,0.09,7.0,15.1,"15:20:02",1
"19/11/26","15:40",0.0,13.6,63.6,1020.4,336.3,2.8,5.4,344.9,0.10,6.9,15.4,"15:35:36",1
"19/11/26","15:50",0.0,13.4,64.5,1020.4,339.7,3.1,8.2,342.9,0.08,6.9,15.1,"15:47:28",1
"19/11/26","16:00",0.0,13.0,65.7,1020.6,337.2,3.2,6.6,338.6,0.05,6.8,15.0,"15:50:24",1
"19/11/26","16:10",0.0,12.8,66.9,1020.6,335.2,3.0,7.7,342.7,0.05,6.8,14.9,"16:02:56",1
"19/11/26","16:20",0.0,12.8,67.3,1020.8,340.1,2.8,5.8,344.4,0.05,6.9,14.9,"16:10:32",1
"19/11/26","16:30",0.0,12.7,67.6,1020.6,339.4,3.2,6.4,333.1,0.04,6.9,15.0,"16:24:10",1
"19/11/26","16:40",0.0,12.5,68.4,1020.4,337.3,2.8,5.4,317.8,0.02,6.9,14.8,"16:32:02",1
"19/11/26","16:50",0.0,12.3,69.0,1020.6,336.9,2.7,5.2,326.1,0.01,6.8,14.9,"16:44:14",1
"19/11/26","17:00",0.0,12.1,69.8,1020.4,336.9,2.2,4.9,336.0,0.00,6.8,14.9,"16:58:36",1
"19/11/26","17:10",0.0,12.0,70.6,1020.4,337.0,2.3,3.7,348.4,0.00,6.9,14.5,"17:03:10",1
"19/11/26","17:20",0.0,11.8,70.9,1020.8,337.8,2.5,4.1,353.5,0.00,6.7,14.7,"17:13:22",1
"19/11/26","17:30",0.0,11.7,71.1,1020.6,338.5,2.2,3.7,341.1,0.00,6.7,14.6,"17:28:50",1
"19/11/26","17:40",0.0,11.6,71.5,1020.6,337.3,2.3,4.5,343.1,0.00,6.7,14.6,"17:31:24",1
"19/11/26","17:50",0.0,11.5,71.6,1020.6,335.0,2.5,5.4,346.9,0.00,6.6,14.5,"17:42:08",1
"19/11/26","18:00",0.0,11.5,71.8,1020.8,339.0,2.0,3.4,321.2,0.00,6.6,14.5,"17:51:10",1
"19/11/26","18:10",0.0,11.4,72.1,1020.8,338.1,2.1,3.4,346.6,0.00,6.6,14.3,"18:00:32",1
"19/11/26","18:20",0.0,11.3,72.5,1020.8,336.3,2.1,3.3,350.8,0.00,6.6,14.3,"18:11:40",1
"19/11/26","18:30",0.0,11.3,72.9,1021.1,332.2,2.2,3.9,349.8,0.00,6.7,14.2,"18:27:46",1
"19/11/26","18:40",0.0,11.1,73.2,1021.3,328.1,2.0,3.5,323.2,0.00,6.5,14.2,"18:39:20",1
"19/11/26","18:50",0.0,11.2,73.3,1021.3,325.8,2.6,4.8,325.8,0.00,6.6,14.2,"18:45:56",1
"19/11/26","19:00",0.0,11.3,73.3,1021.5,318.2,2.3,4.5,337.2,0.00,6.7,13.8,"18:58:46",1
"19/11/26","19:10",0.0,11.3,73.2,1021.5,328.8,2.5,4.7,337.1,0.00,6.7,14.0,"19:07:02",1
"19/11/26","19:20",0.0,11.4,73.1,1021.3,328.7,2.3,4.2,333.8,0.00,6.8,13.9,"19:15:44",1
"19/11/26","19:30",0.0,11.3,73.2,1021.1,324.9,2.5,4.4,339.1,0.00,6.7,14.1,"19:22:46",1
"19/11/26","19:40",0.0,11.3,73.3,1021.5,306.9,1.2,2.2,337.5,0.00,6.7,13.7,"19:30:20",1
"19/11/26","19:50",0.0,11.2,73.5,1021.8,318.1,2.0,3.2,310.6,0.00,6.7,13.9,"19:42:50",1
"19/11/26","20:00",0.0,11.3,73.5,1021.5,314.4,1.8,2.5,323.4,0.00,6.8,13.9,"19:51:08",1
"19/11/26","20:10",0.0,11.3,73.7,1021.8,323.7,1.6,2.1,317.0,0.00,6.8,13.8,"20:03:52",1
"19/11/26","20:20",0.0,11.2,74.0,1021.8,293.8,1.3,2.2,320.1,0.00,6.8,14.1,"20:10:08",1
"19/11/26","20:30",0.0,11.2,74.3,1021.8,292.8,1.3,2.0,330.3,0.00,6.8,13.5,"20:25:52",1
"19/11/26","20:40",0.0,11.2,74.6,1021.8,307.1,1.5,2.2,312.1,0.00,6.9,13.9,"20:32:54",1
"19/11/26","20:50",0.0,11.1,74.6,1021.8,313.4,1.2,2.0,327.6,0.00,6.8,13.7,"20:49:54",1
"19/11/26","21:00",0.0,11.2,74.6,1021.8,306.2,1.5,2.2,337.3,0.00,6.9,13.7,"20:50:10",1
"19/11/26","21:10",0.0,11.1,74.5,1022.0,299.2,1.1,1.7,314.4,0.00,6.8,13.6,"21:09:04",1
"19/11/26","21:20",0.0,11.1,74.8,1021.8,318.5,1.6,1.9,312.1,0.00,6.8,13.7,"21:10:42",1
"19/11/26","21:30",0.2,11.2,75.5,1021.5,341.6,1.1,1.6,337.5,0.00,7.1,13.6,"21:29:28",1
"19/11/26","21:40",0.0,11.1,76.7,1021.5,323.2,1.1,2.4,322.3,0.00,7.2,13.8,"21:37:12",1
"19/11/26","21:50",0.0,10.7,77.9,1021.3,322.6,1.2,1.9,328.5,0.00,7.0,13.7,"21:40:02",1
"19/11/26","22:00",0.0,10.4,79.8,1021.1,305.1,1.1,1.8,333.6,0.00,7.1,13.7,"21:50:32",1
"19/11/26","22:10",0.0,10.2,80.8,1021.3,281.7,0.8,1.1,300.7,0.00,7.1,13.7,"22:00:16",1
"19/11/26","22:20",0.0,10.2,81.8,1021.3,279.2,1.0,1.4,274.0,0.00,7.3,13.5,"22:17:20",1
"19/11/26","22:30",0.0,10.1,82.9,1022.0,297.2,1.1,1.7,318.2,0.00,7.4,13.6,"22:24:32",1
"19/11/26","22:40",0.0,10.1,83.5,1021.8,296.0,1.1,1.4,313.5,0.00,7.5,13.4,"22:38:40",1
"19/11/26","22:50",0.0,10.2,84.4,1021.5,321.1,1.2,2.1,333.9,0.00,7.7,13.7,"22:42:24",1
"19/11/26","23:00",0.0,10.2,85.2,1021.8,320.6,1.1,1.7,334.9,0.00,7.9,13.4,"22:56:08",1
"19/11/26","23:10",0.0,10.2,86.1,1021.3,333.8,1.0,1.4,333.8,0.00,8.0,13.4,"23:05:44",1
"19/11/26","23:20",0.0,10.2,86.7,1021.5,317.4,0.7,1.3,316.8,0.00,8.1,13.5,"23:10:32",1
"19/11/26","23:30",0.0,10.1,87.2,1021.1,304.2,0.8,1.3,314.5,0.00,8.1,13.7,"23:27:20",1
"19/11/26","23:40",0.0,10.1,87.6,1020.8,301.0,1.1,1.6,319.6,0.00,8.2,13.4,"23:30:40",1
"19/11/26","23:50",0.0,10.1,88.0,1020.6,299.4,1.1,1.4,314.5,0.00,8.2,13.5,"23:49:44",1
"19/11/26","24:00",0.0,10.0,88.4,1020.6,302.8,1.2,1.8,315.2,0.00,8.2,13.5,"23:57:44",1
